STARLINK-1713, 46360

Orbit data source: Space-Track

STARLINK-1713, 46360 is a payload satellite owned by SpaceX/Seattle (US) in LEO that was launched on Thu, 03 Sep 2020 UTC via an FALCON 9 launch vehicle from the Air Force Eastern Test Range (AFETR). Payload-class satellites include a variety of spacecraft equipped with specific instruments for various scientific and technological missions. These include communications satellites like Starlink; space stations such as the ISS; scientific satellites like the Hubble; Earth observation satellites from companies like Planet Labs, Umbra, and HawkEye 360; GPS; miniature CubeSats for education and research; and military/defense satellites.

Loading next visibility...
Identifier
46360, 2020-062AM
Orbit
LEO
Country
Flag of USUS
Related business
Manufacturer
SpaceX/Seattle
Mission
Partially operational Commercial Communications
Bus & Motor
STARLINK, Unknown motor
Mass
260 kg wet, ~248 kg dry
Launch date (UTC)
2020-09-03 (5 years ago)
Launch vehicle
FALCON 9
Launch site
Air Force Eastern Test Range (AFETR)
Object type
Payload
Rocket body
Debris
Shape & HBR
Box + 1 Pan, 4.4 m
Radar Cross Section
13.562 m², Large (>1 m²)

Expand to show TLE details & history
Last TLE update: 9 hours ago

TLE from 9 hours ago
0 STARLINK-1713
1 46360U 20062AM  25242.91668981  .00379127  00000-0  28090-2 0  9992
2 46360  53.0402  66.7149 0003797 137.0756 125.4746 15.71233795  6001
Epoch: 2025-08-30T22:00Z
TLE epoch observation values (Epoch: 2025-08-30T22:00:01.999Z)
Latitude
-52.56652°
Longitude
15.17846°
Altitude
375.078 km
Speed
7.683 km/s
True Right ascension
21h 38m 07s
True Declination
-52° 23' 27"
Sunlit
Object was in full shadow at epoch
Visualization orbit readout
Latitude
Unknown
Longitude
Unknown
Altitude
Unknown
Speed
Unknown
Apparent Right ascension
Unknown
Apparent Declination
Unknown
Sunlit
N/A
Visualization observer readout
Local Sidereal Time
22:51:30
Azimuth
Unknown
Elevation
Unknown
Doppler factor
Unknown
Orbital elements
Apogee altitude
358.207 km
Perigee altitude
353.093 km
Semi-major axis
6,733.787 km
Eccentricity
0.00038
Inclination
53.0402°
RAAN
66.7149°
Arg. of periapsis
137.0756°
True anomaly
125.51002°
Mean anomaly
125.4746°
Eccentric anomaly
125.49231°
Mean motion
3.92784 °/min
Orbital period
91.65 mins
BSTAR
0.002809
Loading maneuver chart data...
Computing Atmospheric mass density...
Loading historical data...
Loading historical data...
Loading historical data...
Loading historical data...
Loading historical data...
Loading historical data...
Loading historical data...

Documentation

Showing up to 5 results
|